Location: Igon
(43.1667°N, 0.2333°W)
Time: 08:55:06
(UTC+00:00)

NOSS 3-4 (A) - Pass Details

Date: 29 November 2020
Orbit: 879 x 1333 km, 63.4° (Epoch: 22 January)

Event Time Altitude Azimuth Distance (km) Brightness Sun altitude
Exits shadow 04:00:53 53° 76° (ENE) 1,114 4.0 -34.1°
Drops below altitude 10° 04:05:52 10° 42° (NE) 2,683 6.2 -33.2°
Sets 04:08:33 0° 39° (NE) 3,689 7.0 -32.7°
